Wind_Speed
25 27 26 26 30 33 36 36 37 38 41 38 42 46 47 43 41 38 35 32 28 24 28 29 26 25 23 21 19 17 18 20 22 23 24 24 26 28 28 27 28 30 32 33
22 23 26 30 33 34 34 36 37 38 40 41 46 48 47 45 43 41 40 37 33 30 31 33 31 30 29 28 26 22 22 23 25 27 29 30 31 32 33 32 33 35 37 37
16 19 23 28 32 34 36 37 37 37 39 42 46 47 46 45 43 42 42 39 34 32 31 33 32 32 33 32 31 30 29 28 29 31 32 34 35 37 38 40 41 42 43 42
17 18 20 25 29 31 33 35 37 37 39 40 45 45 39 44 42 41 41 41 37 34 34 35 34 32 32 33 34 35 34 32 32 33 35 38 39 40 42 44 45 48 48 48
21 21 23 25 27 30 32 34 36 37 38 41 44 46 40 42 42 39 39 40 41 39 39 38 34 32 34 36 37 37 37 35 34 36 38 40 42 46 47 47 48 51 52 53
25 24 24 25 27 29 29 31 32 34 37 42 40 42 38 34 38 36 37 38 40 41 41 38 37 37 37 38 39 40 39 37 37 37 39 42 44 47 49 50 50 49 49 49
27 26 25 25 27 28 28 28 28 30 33 35 32 38 36 33 35 35 35 36 37 37 36 36 37 37 38 40 42 43 42 39 36 38 41 44 45 48 49 48 45 43 42 42
30 27 25 24 25 28 30 30 29 28 25 23 26 33 28 31 34 32 30 29 28 27 27 29 32 35 38 40 41 41 40 37 36 39 43 44 44 45 43 41 40 40 42 44
29 24 23 24 25 28 29 30 29 30 30 28 28 28 29 30 29 26 26 25 23 22 23 25 28 31 33 35 36 37 37 37 39 42 45 47 46 42 40 39 41 43 44 47
30 28 24 23 27 30 30 28 28 31 30 30 28 25 22 22 24 21 20 21 21 20 20 22 24 27 30 31 32 34 36 39 42 44 46 44 41 40 42 45 45 44 45 48
31 30 26 25 27 28 31 32 32 30 26 26 27 24 25 28 25 21 19 20 21 23 25 26 26 28 30 31 32 33 36 40 42 43 44 43 42 44 50 48 45 45 47 50
33 31 28 27 28 28 32 33 31 29 27 27 27 25 28 29 25 21 20 20 21 24 26 27 28 29 30 33 34 35 37 39 40 41 43 45 48 51 52 48 46 46 48 49
35 33 28 25 28 30 32 34 35 34 31 29 27 25 28 26 25 23 23 25 27 29 30 30 31 33 34 35 36 37 39 42 45 48 50 51 51 52 51 47 46 47 46 47
36 35 32 26 27 33 32 32 35 36 32 29 28 28 33 32 30 30 30 30 32 33 34 36 37 37 38 38 39 41 44 46 50 51 51 51 50 49 48 46 46 45 45 47
37 38 39 38 37 37 36 36 36 36 35 33 31 32 35 35 33 34 34 35 35 36 37 38 39 40 43 44 46 47 48 50 51 50 50 49 48 47 46 45 44 44 45 45
38 41 41 40 41 41 39 38 38 38 36 36 35 35 38 35 35 35 35 35 36 37 39 41 43 47 49 50 50 49 49 49 48 47 48 48 47 46 45 44 43 43 44 45
38 39 40 40 42 42 42 44 44 42 42 42 41 42 43 40 40 40 40 41 42 44 46 48 49 50 51 50 49 47 47 45 46 47 48 48 47 44 43 42 42 43 45 46
38 39 39 39 41 42 44 45 43 45 48 49 49 50 49 48 47 47 47 48 50 51 51 51 49 48 47 45 44 44 43 45 49 49 49 47 43 41 41 41 42 44 46 48
36 36 37 38 39 39 41 40 40 42 48 50 53 55 55 54 53 52 52 52 51 50 48 46 45 44 42 41 41 42 45 48 50 47 42 39 39 40 40 41 43 45 48 50
30 31 32 33 33 35 39 37 38 38 41 42 43 46 49 51 51 50 49 48 46 45 44 43 41 39 38 38 42 46 49 49 45 37 34 36 38 40 40 42 44 47 49 48
26 27 28 30 33 36 38 37 37 36 37 37 37 38 39 41 42 43 43 43 42 41 40 38 35 33 34 39 46 48 46 40 35 33 34 36 37 39 41 43 45 47 47 46
24 24 26 28 30 34 34 34 33 32 32 32 33 33 33 34 35 36 37 37 36 34 33 31 29 30 35 41 42 39 34 32 31 32 34 35 36 39 41 43 44 44 45 46
21 23 25 28 30 33 33 32 31 29 27 27 27 27 27 27 28 28 28 29 29 28 26 25 27 32 36 35 33 30 28 28 30 30 32 34 37 39 41 42 43 44 45 46
23 25 28 30 31 34 34 34 33 31 29 26 25 24 24 23 23 23 22 23 23 22 23 26 30 32 31 29 26 25 25 25 26 29 32 35 38 39 40 42 43 44 43 41
24 26 28 31 33 36 36 37 35 33 29 25 22 21 20 19 18 17 18 19 20 21 24 26 27 27 25 22 20 19 20 23 27 31 34 36 37 39 40 42 42 40 36 31
23 24 25 25 28 28 28 30 28 24 20 18 17 17 16 14 12 11 12 13 15 18 20 21 20 17 15 15 15 17 21 25 29 31 34 36 38 40 40 39 36 32 27 23
Wind_Direction
242 245 247 244 240 239 241 242 241 241 249 251 251 253 258 260 264 267 268 264 259 251 252 258 259 259 260 261 267 278 289 296 300 303 307 304 299 299 303 305 303 301 297 292
250 252 249 247 245 244 244 244 244 245 248 249 251 253 257 258 261 265 269 267 261 258 257 258 261 260 259 259 262 271 281 292 298 302 305 306 301 297 298 299 300 298 296 293
266 260 256 255 253 251 250 249 247 246 248 250 254 257 260 260 260 262 266 269 267 263 257 257 263 263 260 264 272 279 282 288 294 297 301 303 301 298 299 300 298 298 294 289
274 275 266 261 258 256 256 254 252 249 249 251 255 257 258 264 262 262 265 269 271 268 263 263 268 263 260 265 271 277 282 284 289 295 299 301 299 296 296 299 298 298 297 290
272 274 275 272 267 263 259 257 256 254 254 253 256 260 260 265 268 265 265 267 269 270 270 269 265 261 262 265 269 275 279 282 288 293 297 296 296 296 296 297 298 299 298 294
270 273 274 273 270 267 266 264 262 260 258 257 258 263 264 266 269 267 265 265 267 269 270 265 261 264 267 269 271 275 278 282 288 290 292 294 297 300 301 299 298 299 300 299
265 268 268 267 268 267 263 261 261 261 260 264 265 263 264 261 267 270 268 267 269 269 268 263 262 265 268 271 274 277 280 282 283 285 289 295 298 300 301 301 301 301 302 301
264 267 268 268 267 265 262 259 257 256 258 264 264 268 265 263 270 272 271 271 271 271 269 267 267 269 270 272 274 276 278 278 281 285 289 294 298 300 300 302 304 305 305 302
258 257 262 262 260 258 258 261 264 262 260 256 254 261 271 272 272 270 266 266 266 267 273 276 275 274 275 275 274 275 277 282 285 288 291 293 294 298 303 306 308 308 306 303
254 252 253 256 253 255 257 260 261 262 263 263 266 268 275 272 275 273 267 259 259 264 274 280 281 281 281 280 279 278 282 286 288 290 292 294 296 301 308 311 310 306 303 300
251 252 250 245 245 248 253 256 259 261 259 260 266 268 264 270 281 280 273 267 268 272 280 286 287 286 284 283 282 284 290 292 291 292 294 295 300 306 312 312 307 303 301 299
251 251 251 248 243 241 243 249 253 254 259 267 270 271 266 271 277 279 277 275 276 280 284 289 292 292 290 286 285 288 291 294 294 299 301 303 307 309 309 307 302 299 298 298
252 253 254 255 255 244 242 246 247 252 259 265 269 274 272 277 276 274 272 272 276 281 284 286 288 290 291 291 293 295 296 297 298 304 307 308 307 307 305 301 298 297 297 298
250 252 250 240 242 249 247 246 245 248 257 262 265 264 271 275 275 273 272 273 276 281 284 286 288 288 290 293 296 299 299 300 302 305 306 306 306 304 300 298 297 297 298 298
247 249 251 250 250 254 256 256 255 255 257 259 261 265 269 271 272 272 272 273 276 280 284 288 289 288 289 293 296 298 300 302 304 303 303 303 303 300 298 297 296 298 298 299
247 248 250 251 254 255 255 258 261 262 264 264 265 268 268 272 273 273 275 276 279 283 287 291 292 290 290 292 295 299 301 302 300 298 299 300 299 298 297 297 298 300 302 304
248 249 250 250 251 254 254 254 256 260 263 264 265 266 272 275 275 277 279 282 284 286 288 291 292 290 290 294 298 299 301 298 290 288 292 295 295 295 297 299 301 304 306 308
247 249 251 252 253 253 253 256 257 258 260 263 264 267 270 272 273 276 278 280 282 284 287 289 289 290 292 295 296 297 296 288 280 280 287 291 294 297 300 302 305 308 311 313
247 249 251 253 256 258 259 260 260 259 260 263 263 265 267 269 272 274 276 278 280 282 285 286 288 288 289 289 288 286 284 280 275 279 287 294 298 299 302 306 309 312 313 314
246 247 250 254 257 262 263 265 265 265 264 265 265 266 267 269 270 273 276 278 279 280 281 283 284 284 284 281 276 275 276 277 280 287 295 299 299 302 306 309 311 313 313 313
245 248 253 258 262 265 268 270 270 268 268 269 268 267 267 267 269 271 273 274 276 277 278 279 279 277 276 273 272 272 274 282 292 299 300 299 301 305 309 311 312 312 312 313
251 253 256 260 262 265 268 268 269 270 271 271 270 269 267 266 266 267 268 270 271 273 274 275 274 271 269 269 274 280 286 293 297 298 298 301 305 309 311 312 312 312 314 315
252 257 260 262 264 267 269 270 271 271 271 271 270 268 265 263 263 264 265 268 269 272 273 271 268 268 270 277 284 289 293 296 297 298 302 307 310 311 312 312 313 315 316 317
261 264 267 269 270 270 269 269 269 270 269 269 267 264 261 261 261 261 263 263 264 265 262 261 264 270 275 279 283 288 293 296 300 305 309 311 312 312 313 315 316 317 318 318
271 273 273 273 271 270 269 268 268 267 266 263 259 256 254 255 254 257 261 261 258 257 259 266 272 276 278 282 288 294 300 306 310 313 313 313 313 315 317 318 319 320 321 323
276 275 274 272 272 272 271 268 263 256 249 246 244 242 240 237 240 250 257 256 255 259 266 270 274 279 286 293 300 307 314 317 317 317 316 316 317 318 319 321 322 325 327 329
Height
5833 5837 5839 5842 5842 5843 5844 5848 5850 5852 5850 5853 5853 5852 5851 5853 5855 5856 5858 5859 5860 5860 5857 5856 5857 5857 5856 5854 5853 5852 5851 5850 5849 5848 5846 5844 5842 5840 5837 5834 5831 5829 5825 5822
5829 5832 5833 5833 5834 5835 5837 5839 5842 5845 5845 5845 5844 5843 5843 5846 5848 5849 5849 5851 5853 5853 5852 5851 5851 5852 5851 5849 5847 5846 5846 5845 5844 5842 5840 5838 5835 5833 5831 5828 5825 5822 5819 5815
5823 5826 5826 5827 5828 5830 5831 5833 5834 5837 5837 5836 5835 5836 5837 5837 5841 5842 5842 5843 5846 5847 5846 5845 5845 5846 5845 5844 5842 5840 5839 5838 5836 5834 5831 5828 5826 5824 5821 5819 5816 5813 5810 5806
5817 5819 5818 5819 5820 5822 5823 5825 5826 5827 5829 5829 5827 5828 5832 5828 5831 5834 5835 5836 5838 5839 5838 5838 5838 5839 5839 5837 5835 5833 5831 5829 5827 5825 5822 5819 5817 5814 5811 5808 5805 5801 5798 5794
5812 5812 5811 5812 5813 5814 5815 5816 5818 5819 5821 5821 5819 5819 5825 5821 5823 5826 5828 5829 5830 5831 5831 5831 5831 5831 5831 5829 5827 5825 5823 5821 5819 5816 5813 5810 5807 5804 5800 5796 5793 5788 5785 5781
5805 5806 5806 5806 5807 5807 5809 5810 5811 5811 5812 5812 5814 5813 5816 5817 5815 5818 5820 5821 5822 5822 5823 5824 5824 5823 5822 5820 5818 5816 5814 5811 5809 5806 5804 5801 5798 5794 5789 5785 5782 5777 5772 5769
5799 5799 5799 5800 5800 5800 5802 5804 5804 5804 5804 5805 5808 5806 5809 5809 5808 5810 5812 5813 5813 5814 5815 5816 5816 5815 5813 5810 5808 5805 5803 5801 5799 5797 5795 5792 5788 5784 5780 5775 5770 5765 5760 5755
5791 5792 5793 5793 5794 5795 5794 5796 5799 5801 5803 5804 5801 5798 5803 5800 5800 5802 5803 5804 5804 5805 5806 5806 5806 5805 5803 5801 5798 5796 5794 5791 5790 5789 5786 5782 5778 5774 5769 5764 5758 5753 5748 5742
5784 5786 5787 5787 5787 5788 5788 5789 5792 5793 5793 5794 5796 5796 5793 5793 5794 5795 5796 5797 5798 5798 5798 5798 5796 5795 5793 5791 5789 5787 5785 5783 5781 5779 5776 5772 5768 5763 5758 5752 5747 5741 5736 5730
5775 5778 5781 5781 5780 5780 5783 5785 5786 5785 5786 5787 5789 5790 5791 5789 5788 5789 5790 5791 5791 5791 5790 5789 5788 5786 5784 5782 5781 5779 5777 5775 5772 5769 5764 5760 5756 5752 5746 5741 5735 5729 5723 5717
5767 5770 5773 5774 5774 5777 5777 5778 5778 5780 5781 5782 5783 5787 5784 5781 5782 5783 5784 5784 5784 5784 5783 5782 5780 5778 5776 5775 5773 5771 5769 5765 5761 5757 5753 5749 5745 5739 5734 5728 5722 5717 5711 5705
5757 5761 5764 5767 5767 5768 5770 5771 5773 5774 5774 5774 5775 5780 5774 5774 5775 5776 5777 5777 5777 5777 5776 5775 5773 5771 5769 5767 5765 5762 5759 5755 5751 5746 5741 5737 5732 5727 5721 5715 5710 5704 5698 5693
5748 5752 5756 5759 5761 5761 5761 5763 5766 5767 5768 5768 5770 5773 5764 5766 5768 5769 5770 5770 5770 5770 5769 5767 5765 5764 5762 5759 5756 5753 5749 5746 5740 5735 5730 5725 5720 5715 5709 5703 5697 5691 5685 5680
5740 5742 5748 5753 5752 5750 5753 5755 5757 5760 5762 5762 5761 5762 5758 5759 5760 5762 5762 5762 5762 5761 5760 5759 5757 5755 5752 5749 5746 5742 5738 5734 5729 5723 5719 5714 5708 5703 5697 5691 5686 5680 5674 5668
5731 5734 5736 5739 5742 5744 5745 5746 5748 5750 5751 5753 5753 5752 5751 5751 5752 5753 5753 5754 5753 5753 5752 5750 5748 5745 5742 5738 5735 5731 5726 5722 5717 5712 5707 5702 5696 5691 5685 5680 5674 5668 5662 5656
5721 5724 5726 5729 5732 5734 5736 5738 5739 5740 5742 5742 5743 5744 5741 5743 5743 5743 5744 5744 5744 5743 5742 5740 5737 5734 5730 5727 5723 5719 5714 5709 5704 5700 5695 5690 5685 5680 5674 5669 5663 5657 5651 5644
5711 5714 5717 5720 5721 5723 5727 5728 5729 5731 5731 5732 5733 5733 5731 5733 5734 5734 5734 5734 5733 5732 5731 5729 5726 5722 5718 5714 5710 5707 5702 5697 5693 5688 5683 5679 5674 5669 5664 5658 5652 5646 5639 5631
5702 5704 5706 5709 5711 5713 5716 5715 5720 5722 5720 5720 5721 5721 5721 5722 5723 5724 5723 5723 5722 5720 5719 5716 5713 5709 5706 5703 5699 5695 5691 5686 5682 5677 5672 5667 5663 5658 5653 5647 5640 5634 5626 5619
5692 5694 5697 5699 5700 5702 5703 5705 5708 5710 5708 5709 5709 5710 5709 5710 5711 5711 5710 5710 5709 5708 5706 5704 5701 5698 5696 5693 5689 5685 5681 5676 5671 5665 5660 5656 5653 5648 5642 5635 5628 5621 5614 5607
5683 5685 5688 5689 5691 5692 5692 5695 5696 5698 5696 5698 5697 5697 5698 5698 5699 5698 5697 5697 5697 5696 5695 5693 5691 5689 5686 5684 5680 5676 5671 5666 5660 5654 5651 5647 5643 5637 5631 5624 5617 5610 5603 5597
5675 5676 5679 5680 5681 5681 5683 5684 5685 5687 5686 5686 5685 5686 5687 5687 5687 5687 5686 5686 5686 5686 5684 5683 5682 5681 5679 5676 5672 5667 5661 5656 5651 5647 5643 5639 5634 5628 5621 5614 5606 5600 5593 5587
5665 5667 5669 5670 5672 5673 5673 5673 5674 5674 5674 5674 5674 5674 5675 5675 5675 5676 5676 5676 5676 5676 5675 5675 5674 5673 5670 5666 5661 5656 5651 5647 5644 5640 5636 5631 5625 5618 5611 5604 5597 5590 5583 5576
5657 5659 5660 5662 5664 5662 5662 5662 5663 5664 5664 5664 5664 5665 5665 5666 5666 5667 5668 5668 5667 5667 5667 5667 5666 5664 5661 5658 5654 5650 5645 5642 5638 5634 5629 5623 5616 5609 5602 5595 5588 5581 5574 5567
5649 5650 5651 5652 5652 5651 5651 5652 5653 5654 5655 5656 5657 5657 5658 5658 5659 5660 5661 5661 5661 5661 5661 5661 5659 5657 5654 5651 5648 5644 5640 5637 5633 5628 5621 5614 5608 5601 5594 5587 5580 5572 5565 5558
5642 5642 5642 5642 5641 5640 5641 5641 5642 5644 5646 5648 5649 5650 5652 5653 5654 5655 5655 5655 5656 5656 5655 5655 5653 5651 5649 5646 5642 5639 5636 5632 5626 5620 5613 5607 5600 5593 5586 5578 5571 5564 5557 5551
5634 5634 5634 5633 5631 5630 5630 5629 5631 5634 5638 5640 5642 5644 5646 5648 5650 5651 5651 5652 5652 5651 5651 5650 5648 5646 5644 5642 5639 5635 5631 5625 5619 5613 5607 5600 5592 5585 5577 5571 5564 5556 5551 5545